Date,TemperatureHighF,TemperatureAvgF,TemperatureLowF,DewpointHighF,DewpointAvgF,DewpointLowF,HumidityHigh,HumidityAvg,HumidityLow,PressureMaxIn,PressureMinIn,WindSpeedMaxMPH,WindSpeedAvgMPH,GustSpeedMaxMPH,PrecipitationSumIn
2014-1-1,42.5,34.3,28.3,28.5,24.5,20.8,75,67,52,30.37,30.13,0,-999,0,0.00
2014-1-2,44.1,37.3,23.3,39.9,31.0,12.5,85,78,62,30.13,29.68,0,-999,0,0.09
2014-1-3,31.1,23.7,15.8,13.5,9.9,5.6,66,56,40,30.37,29.88,0,-999,0,0.00
2014-1-4,38.1,29.5,19.3,29.9,18.8,8.7,76,64,50,30.38,30.20,0,-999,0,0.00
2014-1-5,44.5,40.8,36.6,40.9,36.6,29.9,88,84,77,30.20,29.75,0,-999,0,0.12
2014-1-6,42.2,28.4,9.0,38.8,18.1,-4.9,88,66,44,30.14,29.68,0,-999,0,0.13
2014-1-7,22.1,13.5,3.1,5.3,-0.5,-8.3,62,53,45,30.38,30.12,0,-999,0,0.00
2014-1-8,42.7,25.9,12.3,19.9,12.2,3.5,69,56,38,30.50,30.37,0,-999,0,0.00
2014-1-9,45.6,33.6,25.5,26.8,20.2,16.0,71,58,40,30.50,30.39,0,-999,0,0.10
2014-1-10,47.4,40.6,34.4,43.6,35.8,26.8,87,82,72,30.45,30.08,0,-999,0,0.92
2014-1-11,50.9,45.9,38.4,48.2,42.4,32.2,92,87,77,30.08,29.66,0,-999,0,1.60
2014-1-12,49.0,39.5,32.0,34.7,29.5,25.4,78,67,51,30.18,29.85,0,-999,0,0.00
2014-1-13,50.5,41.9,33.5,36.3,31.6,26.2,81,67,52,30.15,29.93,0,-999,0,0.10
2014-1-14,52.1,43.7,34.2,43.7,34.4,25.1,85,70,44,29.99,29.79,0,-999,0,0.14
2014-1-15,38.2,33.5,28.3,30.5,25.5,20.2,76,72,69,29.98,29.89,0,-999,0,0.00
2014-1-16,38.9,29.8,21.4,21.5,16.8,14.1,73,59,42,30.01,29.87,0,-999,0,0.00
2014-1-17,45.1,34.6,26.4,26.0,16.6,12.5,62,48,32,29.96,29.79,0,-999,0,0.00
2014-1-18,35.8,29.1,21.3,15.1,11.5,7.3,56,47,39,30.04,29.89,0,-999,0,0.00
2014-1-19,48.7,35.8,26.5,25.4,18.1,10.3,61,48,35,30.00,29.87,0,-999,0,0.00
2014-1-20,58.5,40.7,26.6,27.8,21.4,16.0,64,48,28,29.95,29.84,0,-999,0,0.00
2014-1-21,51.3,35.0,22.0,31.2,21.1,9.1,64,57,39,29.86,29.61,0,-999,0,0.01
2014-1-22,31.0,21.9,12.4,9.0,6.1,1.1,61,50,37,30.02,29.84,0,-999,0,0.00
2014-1-23,32.9,22.9,14.8,12.9,6.4,-3.0,62,49,37,30.36,30.02,0,-999,0,0.00
2014-1-24,29.2,17.7,5.4,1.5,-2.7,-8.4,55,41,29,30.50,30.13,0,-999,0,0.00
2014-1-25,36.8,27.6,17.4,19.3,8.4,-3.2,58,44,30,30.13,29.65,0,-999,0,0.00
2014-1-26,48.9,36.2,23.2,24.1,18.5,10.7,60,49,32,29.92,29.80,0,-999,0,0.00
2014-1-27,52.0,39.9,26.6,34.4,24.9,9.4,61,54,46,30.06,29.84,0,-999,0,0.00
2014-1-28,27.2,22.9,17.9,16.5,10.1,3.8,69,58,44,30.18,30.04,0,-999,0,0.00
2014-1-29,27.5,19.5,10.8,9.5,5.9,0.9,69,56,41,30.25,30.07,0,-999,0,0.01
2014-1-30,35.6,22.2,7.1,15.8,6.9,-3.0,64,52,36,30.27,30.13,0,-999,0,0.04
2014-1-31,49.8,32.9,19.2,24.1,15.9,8.7,64,51,34,30.20,30.10,0,-999,0,0.07
2014-2-1,53.1,39.3,28.2,27.0,21.4,15.2,60,49,26,30.22,30.10,0,-999,0,0.00
2014-2-2,63.6,47.1,32.0,48.2,36.5,23.3,81,66,56,30.13,29.98,0,-999,0,0.05
2014-2-3,55.7,48.7,37.4,52.3,42.9,30.9,90,80,67,30.22,29.87,0,-999,0,0.81
2014-2-4,40.3,38.5,36.3,35.0,32.9,31.3,83,79,76,30.31,30.06,0,-999,0,0.32
2014-2-5,58.6,43.7,31.8,48.7,34.7,22.2,90,72,38,30.12,29.84,0,-999,0,0.38
2014-2-6,37.4,32.4,26.7,23.3,21.1,17.2,67,62,56,30.27,30.12,0,-999,0,0.00
2014-2-7,45.7,36.1,30.0,29.4,24.3,20.3,70,62,52,30.29,30.19,0,-999,0,0.00
2014-2-8,48.6,37.8,32.1,33.1,26.8,22.1,71,64,54,30.23,30.09,0,-999,0,0.00
2014-2-9,52.9,40.4,30.0,36.4,29.2,23.0,78,65,47,30.15,29.97,0,-999,0,0.00
2014-2-10,35.7,33.9,32.0,29.3,27.3,24.1,79,76,70,30.17,30.02,0,-999,0,0.15
2014-2-11,33.0,32.0,30.0,27.4,26.2,24.6,80,78,77,30.27,30.15,0,-999,0,0.02
2014-2-12,31.1,27.3,24.6,25.0,20.5,15.6,81,75,66,30.29,29.79,0,-999,0,0.00
2014-2-13,39.2,32.3,27.6,30.5,26.0,21.6,81,77,69,29.78,29.59,0,-999,0,0.36
2014-2-14,48.2,35.9,22.9,32.9,25.8,17.1,78,67,48,29.82,29.65,0,-999,0,0.34
2014-2-15,40.9,35.1,28.8,30.2,21.5,13.7,80,59,33,30.05,29.56,0,-999,0,0.05
2014-2-16,50.8,37.2,25.3,30.9,24.0,16.9,70,59,44,30.14,29.99,0,-999,0,0.01
2014-2-17,47.0,38.2,30.0,31.7,26.7,21.4,73,63,50,30.28,30.14,0,-999,0,0.02
2014-2-18,58.0,43.9,31.2,36.0,30.0,25.2,79,60,36,30.23,30.08,0,-999,0,0.01
2014-2-19,66.1,53.4,44.0,55.6,43.8,31.4,89,70,47,30.13,29.97,0,-999,0,0.43
2014-2-20,64.8,55.3,46.7,54.9,47.1,38.8,84,74,63,30.15,29.94,0,-999,0,0.00
2014-2-21,58.6,50.6,33.7,53.1,39.3,22.6,88,67,34,30.07,29.84,0,-999,0,0.84
2014-2-22,58.4,44.5,33.4,30.9,24.3,21.2,67,47,26,30.21,30.06,0,-999,0,0.00
2014-2-23,63.3,47.7,33.3,33.9,27.3,21.0,65,46,29,30.13,29.95,0,-999,0,0.00
2014-2-24,54.3,43.9,33.3,34.9,26.6,18.4,69,51,34,30.15,29.97,0,-999,0,0.00
2014-2-25,56.5,41.5,31.9,29.4,22.9,18.1,62,48,34,30.11,29.93,0,-999,0,0.00
2014-2-26,43.9,35.2,26.8,22.8,19.3,14.6,60,52,39,29.95,29.76,0,-999,0,0.00
2014-2-27,47.1,32.0,19.8,16.6,12.0,5.9,67,46,24,29.97,29.79,0,-999,0,0.00
2014-2-28,46.4,33.7,21.2,17.0,12.3,7.7,59,42,27,30.23,29.97,0,-999,0,0.00
2014-3-1,55.4,41.5,30.0,32.7,24.5,13.8,60,50,40,30.29,30.17,0,-999,0,0.00
2014-3-2,65.6,50.0,33.9,46.5,36.9,25.1,74,61,45,30.23,29.96,0,-999,0,0.00
2014-3-3,53.6,45.3,32.3,45.5,37.8,25.8,80,74,64,30.14,29.78,0,-999,0,0.41
2014-3-4,42.9,34.7,28.5,26.7,24.1,22.0,80,65,51,30.22,30.09,0,-999,0,0.01
2014-3-5,55.1,41.1,30.3,33.7,25.5,20.7,70,55,30,30.21,30.06,0,-999,0,0.00
2014-3-6,39.6,35.0,30.2,27.5,21.9,18.5,75,59,43,30.28,30.04,0,-999,0,0.14
2014-3-7,50.3,40.6,34.4,40.2,33.2,27.6,80,74,65,30.04,29.94,0,-999,0,0.50
2014-3-8,63.1,47.4,32.8,43.5,32.9,27.1,81,60,30,30.13,30.01,0,-999,0,0.00
2014-3-9,65.4,50.1,38.4,41.8,32.6,24.7,70,52,37,30.14,30.07,0,-999,0,0.00
2014-3-10,67.1,49.2,32.2,40.1,31.3,21.0,65,51,33,30.12,29.90,0,-999,0,0.00
2014-3-11,72.1,54.7,36.3,42.4,35.4,26.5,68,50,29,29.93,29.75,0,-999,0,0.00
2014-3-12,67.2,54.3,35.5,54.9,41.8,21.2,85,63,43,29.78,29.41,0,-999,0,0.02
2014-3-13,45.5,36.5,28.4,20.1,11.5,5.3,55,37,20,30.22,29.75,0,-999,0,0.00
2014-3-14,57.8,42.0,26.8,21.8,16.7,9.3,51,37,23,30.27,30.09,0,-999,0,0.00
2014-3-15,66.8,52.4,39.5,35.1,29.3,21.3,58,41,28,30.12,30.04,0,-999,0,0.00
2014-3-16,48.1,44.9,41.4,39.9,35.1,28.1,80,69,48,30.10,29.75,0,-999,0,0.79
2014-3-17,41.9,36.0,32.3,35.0,30.8,27.7,83,81,79,29.89,29.74,0,-999,0,0.37
2014-3-18,46.6,38.3,32.2,39.3,32.8,27.5,85,80,74,30.14,29.85,0,-999,0,0.01
2014-3-19,50.2,43.9,40.0,41.9,38.1,35.1,87,80,71,30.15,29.99,0,-999,0,0.03
2014-3-20,62.8,48.0,36.2,42.1,30.3,22.1,83,55,25,30.12,30.01,0,-999,0,0.00
2014-3-21,63.0,47.2,32.0,31.9,24.7,20.3,64,43,24,30.20,30.07,0,-999,0,0.00
2014-3-22,69.9,55.2,43.3,38.8,33.0,25.1,57,43,31,30.11,30.01,0,-999,0,0.00
2014-3-23,50.9,44.7,36.1,41.9,35.1,25.1,78,68,57,30.16,29.99,0,-999,0,0.23
2014-3-24,53.1,40.9,28.6,27.9,24.7,20.8,73,54,34,30.22,30.02,0,-999,0,0.00
2014-3-25,43.4,36.5,27.0,32.6,24.9,13.1,76,62,46,30.05,29.83,0,-999,0,0.07
2014-3-26,47.4,34.2,22.7,14.9,12.4,8.6,56,42,22,30.27,30.04,0,-999,0,0.00
2014-3-27,55.2,41.4,28.3,23.2,18.3,12.2,55,40,25,30.38,30.23,0,-999,0,0.00
2014-3-28,52.9,49.6,43.7,49.1,42.9,23.0,86,78,44,30.26,30.12,0,-999,0,0.10
2014-3-29,58.9,52.4,41.3,54.1,47.6,31.9,89,83,68,30.14,29.69,0,-999,0,0.52
2014-3-30,55.6,44.6,36.3,32.3,27.7,22.5,71,53,34,30.12,29.81,0,-999,0,0.00
2014-3-31,70.9,52.4,32.2,33.4,26.3,20.6,63,40,19,30.20,30.09,0,-999,0,0.00
2014-4-1,77.4,59.0,45.4,42.9,34.1,26.7,56,40,27,30.20,30.08,0,-999,0,0.00
2014-4-2,79.6,61.9,44.0,42.6,33.9,25.7,56,37,20,30.20,30.10,0,-999,0,0.00
2014-4-3,78.6,65.0,54.8,52.5,42.3,25.7,56,43,26,30.15,29.97,0,-999,0,0.00
2014-4-4,71.6,61.9,55.1,56.0,47.3,39.3,73,59,41,30.00,29.86,0,-999,0,0.00
2014-4-5,62.5,53.2,41.9,38.9,34.6,30.8,70,50,33,30.11,29.94,0,-999,0,0.00
2014-4-6,59.7,49.8,41.5,37.9,33.5,28.7,68,53,43,30.18,30.06,0,-999,0,0.04
2014-4-7,53.3,48.1,43.9,50.0,42.6,37.4,88,81,69,30.09,29.71,0,-999,0,2.63
2014-4-8,59.3,51.0,42.9,50.0,39.8,31.5,88,67,46,29.81,29.67,0,-999,0,0.00
2014-4-9,62.1,50.1,39.7,41.4,32.7,28.2,75,53,30,30.18,29.81,0,-999,0,0.00
2014-4-10,68.6,53.3,36.2,38.5,32.3,25.7,66,46,29,30.30,30.18,0,-999,0,0.00
2014-4-11,73.2,58.9,45.3,42.4,36.3,31.1,61,43,29,30.27,30.14,0,-999,0,0.00
2014-4-12,76.5,61.8,47.8,49.1,39.8,34.7,62,45,28,30.29,30.18,0,-999,0,0.00
2014-4-13,76.6,65.1,54.4,52.4,47.6,40.2,68,53,39,30.23,30.12,0,-999,0,0.00
2014-4-14,63.9,60.1,58.2,57.5,52.4,48.5,86,75,59,30.12,29.86,0,-999,0,0.31
2014-4-15,59.1,49.5,32.2,55.6,43.4,22.6,88,79,66,30.04,29.71,0,-999,0,0.92
2014-4-16,54.2,41.6,28.4,27.9,23.5,20.1,71,51,28,30.40,30.04,0,-999,0,0.00
2014-4-17,59.0,44.9,31.8,32.1,26.6,22.4,69,50,30,30.50,30.38,0,-999,0,0.00
2014-4-18,53.0,46.2,40.9,39.9,33.5,27.1,76,61,51,30.44,30.22,0,-999,0,0.53
2014-4-19,54.4,49.0,46.6,48.0,43.2,39.7,84,80,76,30.28,30.13,0,-999,0,0.93
2014-4-20,66.1,53.9,41.8,44.3,38.0,32.9,83,58,29,30.32,30.22,0,-999,0,0.01
2014-4-21,75.0,57.8,40.0,44.2,38.1,29.7,67,49,29,30.27,30.02,0,-999,0,0.00
2014-4-22,63.0,57.7,51.4,54.5,47.4,39.5,78,68,55,30.02,29.83,0,-999,0,0.05
2014-4-23,71.8,58.5,47.2,47.0,36.0,27.6,80,48,19,30.05,29.87,0,-999,0,0.00
2014-4-24,70.4,56.6,41.3,36.8,32.9,27.4,59,42,27,30.17,30.02,0,-999,0,0.00
2014-4-25,72.6,61.3,52.1,55.6,44.6,35.0,75,54,41,30.03,29.83,0,-999,0,0.01
2014-4-26,76.0,61.7,46.7,44.8,39.9,37.1,70,47,26,30.12,29.99,0,-999,0,0.00
2014-4-27,80.4,65.8,49.3,51.3,43.9,37.3,64,46,25,30.11,30.00,0,-999,0,0.00
2014-4-28,75.1,67.6,58.1,58.1,54.2,50.1,76,62,47,30.06,29.91,0,-999,0,0.00
2014-4-29,68.9,65.4,63.1,60.7,57.6,55.7,87,76,63,30.04,29.85,0,-999,0,0.69
2014-4-30,67.4,62.9,60.2,58.6,56.4,54.2,86,79,64,30.04,29.91,0,-999,0,0.10
2014-5-1,71.3,61.5,51.6,56.4,45.3,31.6,83,59,26,29.98,29.88,0,-999,0,0.00
2014-5-2,67.0,56.1,46.0,40.4,38.0,35.4,67,51,34,30.02,29.89,0,-999,0,0.00
2014-5-3,70.9,57.4,43.4,40.9,38.4,34.5,71,51,32,30.07,29.96,0,-999,0,0.00
2014-5-4,80.9,64.6,48.9,48.9,42.0,37.9,66,46,25,30.12,30.02,0,-999,0,0.00
2014-5-5,84.1,69.2,55.6,52.5,44.2,39.1,63,43,21,30.10,29.95,0,-999,0,0.00
2014-5-6,83.1,68.6,54.5,52.1,47.0,43.0,66,47,25,30.08,29.97,0,-999,0,0.00
2014-5-7,80.6,67.4,53.2,54.1,47.7,43.2,69,50,26,30.22,30.08,0,-999,0,0.00
2014-5-8,81.6,68.8,55.3,54.8,49.5,43.8,67,51,30,30.31,30.21,0,-999,0,0.00
2014-5-9,70.7,64.6,58.3,58.0,53.9,48.7,80,68,57,30.25,30.16,0,-999,0,0.17
2014-5-10,68.2,62.7,57.1,61.2,56.4,51.6,84,79,75,30.20,30.12,0,-999,0,0.17
2014-5-11,77.0,65.1,53.6,62.7,55.1,48.2,83,71,48,30.27,30.17,0,-999,0,0.00
2014-5-12,79.6,68.1,58.5,64.1,58.9,52.7,81,72,54,30.31,30.23,0,-999,0,0.00
2014-5-13,80.4,70.2,60.2,65.5,58.7,54.6,83,68,45,30.28,30.20,0,-999,0,0.00
2014-5-14,75.6,68.7,60.9,61.8,56.9,54.6,81,66,51,30.26,30.11,0,-999,0,0.62
2014-5-15,65.3,60.3,48.3,61.3,55.8,42.9,89,84,76,30.08,29.94,0,-999,0,3.13
2014-5-16,59.4,49.8,41.4,45.3,39.5,34.4,82,68,47,30.16,29.99,0,-999,0,0.00
2014-5-17,62.4,50.3,39.2,44.7,39.1,32.1,76,66,48,30.25,30.14,0,-999,0,0.00
2014-5-18,54.5,50.8,48.1,47.9,44.7,40.9,82,79,74,30.30,30.22,0,-999,0,0.12
2014-5-19,64.0,54.2,43.9,51.6,45.3,39.0,84,72,57,30.35,30.26,0,-999,0,0.00
2014-5-20,71.9,61.2,50.0,58.0,51.5,43.8,79,70,59,30.34,30.20,0,-999,0,0.00
2014-5-21,79.0,66.6,53.7,59.8,53.4,47.5,80,64,36,30.23,30.11,0,-999,0,0.00
2014-5-22,79.0,68.7,59.5,62.8,56.5,50.5,73,65,55,30.18,30.03,0,-999,0,0.01
2014-5-23,77.4,68.5,60.5,64.0,58.0,53.6,79,69,58,30.20,30.09,0,-999,0,0.00
2014-5-24,74.8,65.8,57.0,58.7,53.2,46.8,77,64,49,30.23,30.15,0,-999,0,0.00
2014-5-25,71.7,61.9,53.4,60.2,53.2,43.8,83,73,63,30.27,30.21,0,-999,0,0.35
2014-5-26,75.8,65.7,57.0,64.4,58.5,52.3,84,78,63,30.31,30.21,0,-999,0,0.01
2014-5-27,77.6,67.3,61.5,64.6,59.8,56.6,84,77,63,30.25,30.14,0,-999,0,0.35
2014-5-28,77.1,65.3,57.3,66.1,58.8,52.5,85,79,59,30.19,30.10,0,-999,0,1.13
2014-5-29,75.9,65.4,58.9,66.2,60.1,54.3,87,83,68,30.20,30.12,0,-999,0,0.81
2014-5-30,75.9,66.9,62.3,68.2,61.5,58.5,88,82,69,30.21,30.16,0,-999,0,0.03
2014-5-31,71.4,66.2,61.5,64.2,60.5,57.2,86,81,74,30.29,30.20,0,-999,0,0.00
2014-6-1,67.4,64.1,60.3,59.6,57.9,54.5,84,80,72,30.40,30.29,0,-999,0,0.02
2014-6-2,72.2,63.6,56.4,57.7,54.6,51.8,85,73,59,30.37,30.23,0,-999,0,0.00
2014-6-3,75.3,66.3,56.6,64.0,58.0,50.3,80,74,66,30.25,30.12,0,-999,0,0.00
2014-6-4,80.4,70.1,59.5,66.8,60.6,54.1,83,72,52,30.13,29.95,0,-999,0,0.00
2014-6-5,80.3,72.4,67.0,64.7,62.3,59.8,80,70,53,30.00,29.88,0,-999,0,0.05
2014-6-6,76.2,68.9,63.2,66.6,62.2,58.0,85,79,66,30.06,29.98,0,-999,0,0.07
2014-6-7,76.8,68.9,61.8,66.5,61.6,56.7,85,77,66,30.12,30.03,0,-999,0,1.44
2014-6-8,77.0,69.6,64.4,67.0,63.0,57.6,89,79,64,30.10,29.96,0,-999,0,0.12
2014-6-9,78.5,68.3,58.5,65.5,59.4,53.0,83,73,62,30.05,29.98,0,-999,0,0.00
2014-6-10,81.9,71.6,64.3,66.7,60.8,57.0,79,68,56,30.09,30.02,0,-999,0,0.05
2014-6-11,76.0,68.5,63.3,64.3,60.1,57.2,84,74,57,30.08,29.93,0,-999,0,0.22
2014-6-12,72.9,67.2,63.0,64.9,61.2,58.0,85,80,73,30.02,29.95,0,-999,0,0.36
2014-6-13,74.8,65.8,60.7,65.3,59.8,56.3,86,80,66,30.06,29.94,0,-999,0,0.15
2014-6-14,76.0,66.7,57.6,65.5,59.8,53.0,87,78,66,30.19,30.06,0,-999,0,0.00
2014-6-15,77.5,69.9,62.0,66.8,61.9,57.1,85,75,64,30.29,30.18,0,-999,0,0.00
2014-6-16,80.4,71.2,65.1,69.0,63.5,59.7,83,76,61,30.34,30.27,0,-999,0,0.00
2014-6-17,81.8,72.0,62.9,69.7,63.8,57.8,84,75,59,30.34,30.23,0,-999,0,0.00
2014-6-18,83.0,71.3,65.3,71.0,63.6,59.6,82,76,61,30.29,30.22,0,-999,0,0.02
2014-6-19,82.7,69.4,62.6,70.5,62.0,57.2,83,77,57,30.28,30.20,0,-999,0,0.38
2014-6-20,80.6,67.8,60.9,71.8,62.1,56.3,87,82,68,30.23,30.10,0,-999,0,0.90
2014-6-21,78.1,69.6,62.2,69.6,62.4,58.2,89,78,61,30.11,29.99,0,-999,0,0.00
2014-6-22,79.7,70.9,62.5,66.2,60.6,57.0,83,70,53,30.10,29.99,0,-999,0,0.00
2014-6-23,77.2,70.5,66.3,67.2,62.9,58.6,81,76,69,30.23,30.08,0,-999,0,0.74
2014-6-24,75.2,69.2,64.9,68.1,63.9,60.5,87,83,75,30.22,30.12,0,-999,0,0.32
2014-6-25,77.9,70.9,64.0,67.7,64.0,59.7,87,78,66,30.15,30.08,0,-999,0,0.01
2014-6-26,77.7,70.8,63.7,65.9,62.5,58.4,83,75,62,30.18,30.08,0,-999,0,0.00
2014-6-27,76.8,71.1,66.7,68.4,64.0,61.1,84,77,68,30.24,30.12,0,-999,0,0.04
2014-6-28,73.4,69.4,66.9,67.5,64.5,61.8,87,84,80,30.33,30.22,0,-999,0,0.56
2014-6-29,76.4,70.1,66.9,69.3,65.3,63.1,89,84,73,30.35,30.25,0,-999,0,1.21
2014-6-30,75.9,68.9,63.1,68.2,63.9,59.3,89,84,73,30.25,30.10,0,-999,0,0.05
2014-7-1,81.9,72.7,63.8,70.9,65.5,59.7,88,78,65,30.14,30.03,0,-999,0,0.00
2014-7-2,83.7,74.1,65.9,70.0,65.4,60.8,84,74,60,30.12,30.07,0,-999,0,0.00
2014-7-3,82.1,71.3,64.9,69.1,63.4,56.4,83,76,61,30.13,30.04,0,-999,0,0.08
2014-7-4,75.3,67.1,59.3,59.0,54.3,50.3,77,63,49,30.32,30.12,0,-999,0,0.00
2014-7-5,73.7,64.6,54.5,57.3,52.5,46.5,75,64,50,30.40,30.30,0,-999,0,0.00
2014-7-6,76.0,66.7,57.0,60.7,55.9,50.1,78,68,54,30.30,30.17,0,-999,0,0.00
2014-7-7,78.9,70.6,62.6,65.7,60.9,55.7,80,71,60,30.20,30.08,0,-999,0,0.00
2014-7-8,82.5,71.3,61.2,67.6,60.5,53.7,80,69,47,30.17,30.07,0,-999,0,0.34
2014-7-9,76.1,70.5,66.6,66.8,64.0,61.4,85,79,69,30.18,30.08,0,-999,0,0.17
2014-7-10,76.5,68.5,64.6,68.1,63.4,60.1,87,83,72,30.25,30.13,0,0,0,0.61
2014-7-11,76.6,70.2,64.5,69.2,64.6,60.7,88,82,72,30.34,30.22,0,0,0,0.00
2014-7-12,79.8,72.2,65.4,68.4,64.7,61.2,87,77,63,30.35,30.27,0,0,0,0.00
2014-7-13,78.9,71.6,67.2,70.2,65.6,61.7,85,81,67,30.28,30.17,0,0,0,0.23
2014-7-14,81.8,73.3,66.5,71.5,66.2,62.2,87,78,63,30.17,30.04,0,0,0,0.00
2014-7-15,78.0,71.1,64.9,68.9,65.0,59.9,84,81,72,30.05,29.91,0,0,0,0.61
2014-7-16,73.0,65.7,58.3,61.0,56.8,52.1,84,73,62,30.08,29.97,0,0,0,0.00
2014-7-17,72.8,65.8,58.5,60.1,55.5,51.3,77,69,59,30.20,30.07,0,0,0,0.00
2014-7-18,67.5,64.6,62.4,63.5,59.8,55.4,87,84,76,30.28,30.20,0,0,0,0.73
2014-7-19,64.0,62.9,61.4,60.2,59.1,57.4,88,87,86,30.25,30.19,0,0,0,1.58
2014-7-20,72.6,66.1,60.8,66.6,61.4,57.1,88,84,79,30.23,30.15,0,0,0,0.02
2014-7-21,70.6,68.2,67.0,66.8,64.6,63.3,89,88,85,30.27,30.16,0,0,0,1.64
2014-7-22,73.6,69.5,66.5,67.6,65.3,63.2,90,86,80,30.28,30.21,0,0,0,0.02
2014-7-23,74.6,70.2,65.4,70.5,66.1,61.8,89,86,82,30.25,30.08,0,0,0,0.56
2014-7-24,77.1,70.9,67.3,70.4,66.0,63.2,90,84,76,30.10,30.00,0,0,0,0.16
2014-7-25,76.6,70.4,64.9,66.8,63.3,60.7,87,78,65,30.18,30.09,0,0,0,0.00
2014-7-26,78.8,71.1,63.3,66.5,62.9,58.3,85,75,62,30.17,30.10,0,0,0,0.00
2014-7-27,81.1,72.7,67.3,69.5,65.2,62.1,83,77,62,30.13,29.98,0,0,0,0.02
2014-7-28,77.2,70.0,64.0,65.7,60.7,55.3,88,72,56,30.06,29.96,0,0,0,0.33
2014-7-29,71.4,64.6,56.8,58.7,54.9,50.2,79,70,59,30.14,30.03,0,0,0,0.00
2014-7-30,72.2,63.2,52.6,59.2,53.1,46.1,79,69,55,30.20,30.13,0,0,0,0.00
2014-7-31,66.9,62.8,58.7,59.3,55.9,52.2,81,78,73,30.25,30.18,0,0,0,0.17
2014-8-1,69.4,64.6,61.8,62.3,59.1,56.9,87,82,75,30.24,30.17,0,0,0,0.14
2014-8-2,70.5,66.1,62.9,64.6,61.0,57.9,86,83,78,30.23,30.17,0,0,0,0.06
2014-8-3,76.0,68.4,61.5,65.6,61.0,57.4,87,77,62,30.22,30.15,0,0,0,0.01
2014-8-4,76.1,68.0,63.5,64.7,61.3,57.9,83,79,66,30.22,30.16,0,0,0,0.06
2014-8-5,76.7,68.1,62.0,67.0,62.1,57.7,87,81,66,30.20,30.13,0,0,0,1.16
2014-8-6,75.2,67.0,59.6,67.7,61.6,55.4,87,82,72,30.17,30.10,0,0,0,0.08
2014-8-7,77.6,69.1,62.4,67.2,62.8,58.2,87,80,67,30.17,30.09,0,0,0,0.00
2014-8-8,69.9,67.3,64.8,65.8,62.9,60.0,88,85,80,30.25,30.13,0,0,0,0.78
2014-8-9,75.3,70.2,66.2,68.9,65.6,62.9,89,85,78,30.19,30.10,0,0,0,2.54
2014-8-10,68.3,66.4,65.2,64.8,63.3,62.1,91,89,87,30.20,30.11,0,0,0,0.14
2014-8-11,74.6,69.1,64.9,67.6,64.8,62.1,91,86,77,30.19,30.04,0,0,0,0.01
2014-8-12,77.8,72.0,67.2,70.4,66.8,62.9,89,83,76,30.08,29.92,0,0,0,0.00
2014-8-13,73.0,66.4,59.4,62.9,57.5,53.9,83,73,57,30.14,30.00,0,0,0,0.00
2014-8-14,72.8,64.6,55.7,62.1,56.8,50.3,82,75,64,30.17,30.09,0,0,0,0.00
2014-8-15,74.3,66.9,59.1,63.6,59.6,54.1,85,77,65,30.17,30.10,0,0,0,0.02
2014-8-16,75.2,68.0,60.2,65.2,61.0,55.5,86,78,66,30.18,30.11,0,0,0,0.00
2014-8-17,77.9,70.7,63.1,67.3,63.1,58.1,84,76,64,30.17,30.08,0,0,0,0.00
2014-8-18,77.2,71.8,67.5,67.7,64.8,63.1,86,78,66,30.10,29.94,0,0,0,0.00
2014-8-19,75.9,70.3,64.1,69.5,64.8,59.2,85,82,74,30.05,29.96,0,0,0,0.08
2014-8-20,80.7,70.1,64.2,69.8,64.3,60.2,88,82,67,30.25,30.05,0,0,0,0.32
2014-8-21,78.3,69.6,61.4,70.3,63.8,57.3,88,81,72,30.26,30.18,0,0,0,0.01
2014-8-22,81.4,72.9,64.9,71.0,66.1,60.5,87,79,67,30.24,30.12,0,0,0,0.00
2014-8-23,81.4,73.2,65.6,71.1,65.9,60.9,86,78,65,30.15,30.04,0,0,0,0.00
2014-8-24,73.0,70.6,67.7,67.3,64.3,61.4,85,80,76,30.22,30.07,0,0,0,0.00
2014-8-25,73.2,67.4,62.8,62.7,59.9,55.8,82,76,68,30.25,30.17,0,0,0,0.00
2014-8-26,76.1,66.3,56.3,63.2,57.7,50.7,82,74,58,30.27,30.17,0,0,0,0.00
2014-8-27,77.0,67.2,57.3,63.0,57.8,51.4,81,72,56,30.24,30.13,0,0,0,0.00
2014-8-28,80.2,69.8,59.8,65.6,60.5,53.9,81,72,58,30.20,30.11,0,0,0,0.00
2014-8-29,79.3,71.5,63.8,68.2,62.8,58.3,82,74,59,30.27,30.17,0,0,0,0.00
2014-8-30,78.3,72.2,65.5,68.2,64.7,60.1,85,77,65,30.31,30.23,0,0,0,0.00
2014-8-31,80.0,72.9,68.4,70.1,66.7,64.6,88,80,71,30.28,30.20,0,0,0,0.46
2014-9-1,80.9,73.0,66.7,69.2,65.5,62.2,85,77,63,30.26,30.18,0,0,0,0.00
2014-9-2,81.1,73.0,65.9,69.4,65.5,61.0,85,77,64,30.23,30.10,0,0,0,0.00
2014-9-3,76.9,70.4,64.8,69.4,64.9,60.6,88,82,72,30.24,30.12,0,0,0,1.27
2014-9-4,76.8,71.1,66.8,69.1,65.7,63.0,88,83,73,30.31,30.21,0,0,0,0.01
2014-9-5,78.3,71.8,67.5,69.0,66.0,63.5,87,81,70,30.34,30.21,0,0,0,0.00
2014-9-6,78.9,71.4,66.3,69.4,65.9,62.2,88,82,68,30.24,30.10,0,0,0,0.05
2014-9-7,76.7,69.8,64.3,67.1,63.9,60.1,87,81,70,30.18,30.10,0,0,0,0.54
2014-9-8,69.2,67.1,65.4,65.1,63.1,61.0,88,86,83,30.24,30.15,0,0,0,1.73
2014-9-9,73.7,67.7,64.2,67.4,62.8,60.2,87,84,78,30.25,30.17,0,0,0,0.04
2014-9-10,72.7,68.2,64.9,63.7,62.7,61.1,88,82,71,30.25,30.14,0,0,0,0.00
2014-9-11,77.9,71.6,66.5,69.7,66.0,62.8,88,82,74,30.17,30.10,0,0,0,0.01
2014-9-12,77.0,71.3,66.1,70.0,66.4,62.1,88,84,73,30.20,30.12,0,0,0,0.03
2014-9-13,74.3,69.7,64.8,70.6,66.2,60.6,96,88,82,30.27,30.14,0,0,0,0.43
2014-9-14,64.6,62.5,60.0,60.6,58.5,56.4,89,86,82,30.36,30.26,0,0,0,0.04
2014-9-15,72.0,64.8,60.7,65.8,61.0,57.2,91,87,79,30.32,30.21,0,0,0,0.07
2014-9-16,72.8,67.6,63.2,66.9,63.4,60.1,91,86,78,30.24,30.06,0,0,0,0.00
2014-9-17,68.7,65.5,63.1,63.1,60.6,58.5,88,84,78,30.09,30.01,0,0,0,0.00
2014-9-18,69.1,64.3,60.1,60.6,58.5,56.4,87,81,72,30.14,30.02,0,0,0,0.00
2014-9-19,69.4,64.1,60.7,61.0,58.6,56.3,87,82,72,30.32,30.14,0,0,0,0.00
2014-9-20,69.8,64.2,60.2,57.8,56.7,54.1,86,76,62,30.32,30.14,0,0,0,0.00
2014-9-21,74.1,64.2,54.7,63.5,57.2,49.8,85,78,66,30.17,29.97,0,0,0,0.08
2014-9-22,67.1,61.0,54.0,60.2,52.4,47.0,84,73,56,30.25,30.03,0,0,0,0.01
2014-9-23,62.4,56.0,49.9,52.8,48.4,44.2,81,75,69,30.37,30.24,0,0,0,0.00
2014-9-24,65.0,57.3,48.9,54.0,47.7,43.3,82,71,53,30.41,30.32,0,0,0,0.08
2014-9-25,67.2,62.3,58.9,60.7,57.4,54.1,87,83,79,30.35,30.25,0,0,0,0.08
2014-9-26,66.0,63.1,61.2,59.5,58.2,57.3,87,83,78,30.31,30.25,0,0,0,0.00
2014-9-27,67.7,63.2,60.7,57.8,56.9,56.0,85,79,69,30.32,30.24,0,0,0,0.00
2014-9-28,69.6,62.8,57.1,60.7,56.5,51.7,84,79,70,30.30,30.18,0,0,0,0.00
2014-9-29,65.6,62.2,58.9,62.0,58.2,55.1,88,86,83,30.18,30.06,0,0,0,0.14
2014-9-30,69.3,61.7,56.4,61.9,56.7,52.6,89,83,74,30.07,29.97,0,0,0,0.00
2014-10-1,71.2,62.6,54.3,61.5,56.2,49.6,86,79,67,30.15,30.04,0,0,0,0.00
2014-10-2,72.0,63.3,55.5,60.8,55.5,50.7,84,75,58,30.22,30.13,0,0,0,0.00
2014-10-3,67.9,63.7,59.6,64.5,59.2,54.7,91,85,79,30.15,29.89,0,0,0,0.64
2014-10-4,59.7,52.1,42.1,54.7,42.0,33.5,84,68,50,29.97,29.83,0,0,0,0.00
2014-10-5,56.9,45.8,35.2,40.5,35.1,28.6,77,66,47,30.06,29.95,0,0,0,0.00
2014-10-6,62.6,53.7,45.4,51.5,44.8,38.1,81,71,63,30.12,30.03,0,0,0,0.33
2014-10-7,64.3,58.2,53.5,57.3,52.9,48.6,87,82,76,30.17,30.05,0,0,0,0.23
2014-10-8,69.3,63.1,57.2,62.6,56.8,50.6,89,80,64,30.19,30.07,0,0,0,0.18
2014-10-9,70.7,60.6,52.4,58.4,52.7,46.7,83,75,58,30.25,30.17,0,0,0,0.02
2014-10-10,71.8,64.9,58.4,63.8,59.7,53.7,88,83,73,30.20,30.08,0,0,0,0.21
2014-10-11,70.4,65.6,60.9,64.8,60.9,56.2,88,84,79,30.15,30.04,0,0,0,0.01
2014-10-12,61.1,58.8,55.2,57.5,54.9,51.5,88,86,84,30.28,30.12,0,0,0,0.32
2014-10-13,65.5,60.0,55.0,61.7,56.3,51.4,90,87,82,30.29,30.16,0,0,0,0.37
2014-10-14,65.1,63.6,58.7,63.0,60.6,55.9,93,89,83,30.16,29.81,0,0,0,3.37
2014-10-15,58.5,52.6,46.7,55.5,47.1,43.0,89,81,65,29.92,29.86,0,0,0,0.01
2014-10-16,56.6,51.4,47.3,50.2,46.3,42.4,86,82,77,29.98,29.83,0,0,0,0.04
2014-10-17,55.1,45.5,41.7,48.7,40.6,37.1,85,83,78,30.00,29.96,0,0,0,0.00
2014-10-21,52.6,51.2,49.6,41.8,40.7,39.5,67,67,66,30.06,30.02,0,0,0,0.01
2014-10-22,56.1,48.2,42.1,40.3,36.8,33.9,72,64,53,30.16,30.05,0,0,0,0.00
2014-10-23,60.9,47.8,36.9,41.3,35.4,30.0,76,63,43,30.16,30.04,0,0,0,0.00
2014-10-24,59.5,48.8,40.7,42.6,37.9,33.4,75,66,51,30.12,30.03,0,0,0,0.00
2014-10-25,63.1,50.6,38.9,45.9,39.6,31.9,76,66,51,30.11,30.02,0,0,0,0.00
2014-10-26,69.1,57.1,47.5,53.5,44.5,40.8,80,64,42,30.10,30.00,0,0,0,0.00
2014-10-27,70.0,57.4,45.9,51.3,44.8,37.6,73,63,50,30.20,30.09,0,0,0,0.00
2014-10-28,71.1,60.2,50.0,55.9,48.6,43.0,77,66,51,30.21,30.12,0,0,0,0.00
2014-10-29,63.4,55.1,47.8,54.5,46.9,38.2,79,73,68,30.13,30.01,0,0,0,0.00
2014-10-30,58.4,48.4,38.3,40.9,36.3,31.2,76,63,46,30.11,29.99,0,0,0,0.00
2014-10-31,53.1,44.6,37.2,40.6,35.6,30.4,77,70,60,30.02,29.82,0,0,0,0.01
2014-11-1,41.5,35.8,33.1,30.2,27.3,25.2,80,70,65,30.11,29.76,0,0,0,0.10
2014-11-2,46.9,37.5,30.5,25.2,22.7,20.0,67,55,38,30.40,30.10,0,0,0,0.00
2014-11-3,58.6,43.3,28.7,30.3,25.3,19.3,68,51,28,30.46,30.35,0,0,0,0.00
2014-11-4,62.8,50.0,38.6,37.9,31.0,28.1,67,49,29,30.38,30.25,0,0,0,0.00
2014-11-5,60.2,53.5,47.3,46.5,38.6,29.6,73,57,43,30.32,30.16,0,0,0,0.00
2014-11-6,64.3,55.8,43.9,54.5,42.7,27.9,83,62,40,30.17,29.83,0,0,0,0.00
2014-11-7,54.2,45.1,36.1,33.5,29.7,26.7,68,55,43,30.10,29.97,0,0,0,0.00
2014-11-8,53.7,43.0,33.1,36.2,31.2,25.4,74,63,49,30.07,29.93,0,0,0,0.00
2014-11-9,58.7,46.6,36.3,39.1,34.4,29.0,74,63,45,30.05,29.93,0,0,0,0.00
2014-11-10,60.3,48.0,37.7,42.7,36.3,30.4,75,64,50,30.12,30.04,0,0,0,0.00
2014-11-11,63.4,49.0,36.4,42.5,35.2,29.4,76,60,36,30.10,29.97,0,0,0,0.00
2014-11-12,63.3,51.3,43.5,49.1,39.9,32.9,72,64,59,30.10,30.01,0,0,0,0.00
2014-11-13,48.6,42.9,33.5,39.2,35.1,25.0,80,73,67,30.10,29.99,0,0,0,0.00
2014-11-14,37.2,31.6,24.6,24.7,18.5,13.4,70,58,47,30.25,30.04,0,0,0,0.00
2014-11-15,41.0,30.1,19.7,21.5,16.6,11.4,71,57,43,30.37,30.25,0,0,0,0.00
2014-11-16,53.2,42.1,31.9,36.4,27.7,18.9,78,57,42,30.29,29.99,0,0,0,0.09
2014-11-17,52.1,41.9,28.9,48.8,36.7,20.8,89,81,71,29.99,29.65,0,0,0,1.68
2014-11-18,32.2,25.5,18.4,20.7,13.2,8.6,71,59,49,30.24,29.93,0,0,0,0.00
2014-11-19,38.9,27.3,14.0,18.1,13.0,6.0,70,56,38,30.30,30.16,0,0,0,0.00
2014-11-20,52.4,39.2,28.4,31.9,21.9,17.2,68,51,32,30.18,30.04,0,0,0,0.00
2014-11-21,49.5,36.9,30.2,26.1,21.1,16.9,67,53,36,30.48,30.18,0,0,0,0.00
2014-11-22,51.8,40.2,28.4,26.9,22.5,17.2,64,50,36,30.49,30.28,0,0,0,0.00
2014-11-23,51.7,45.3,41.8,49.1,36.7,24.1,90,72,46,30.28,29.71,0,0,0,2.91
2014-11-24,61.7,54.7,46.8,54.1,49.0,40.6,91,81,71,29.96,29.69,0,0,0,0.00
2014-11-25,51.2,45.4,41.3,40.8,35.7,32.6,80,69,49,30.12,29.96,0,0,0,0.00
2014-11-26,48.1,42.9,37.2,39.6,35.7,28.3,81,75,67,30.06,29.90,0,0,0,0.43
2014-11-27,44.0,36.9,30.4,30.4,25.9,19.6,75,64,53,30.26,29.93,0,0,0,0.00
2014-11-28,42.3,32.8,23.9,22.4,19.7,15.1,69,58,42,30.32,30.21,0,0,0,0.00
2014-11-29,52.1,40.4,29.5,31.4,26.0,20.3,72,57,40,30.24,30.16,0,0,0,0.00
2014-11-30,62.7,50.2,39.6,46.1,38.1,28.1,74,63,51,30.35,30.17,0,0,0,0.00
2014-12-1,65.9,53.6,44.0,50.8,42.9,36.8,78,67,51,30.40,30.30,0,0,0,0.00
2014-12-2,58.2,50.4,45.2,49.7,43.6,39.4,80,77,71,30.38,30.27,0,0,0,0.00
2014-12-3,62.9,53.7,47.8,51.1,44.7,40.0,84,72,52,30.32,30.21,0,0,0,0.00
2014-12-4,58.8,50.3,43.8,46.8,41.4,37.6,80,71,60,30.38,30.27,0,0,0,0.00
2014-12-5,51.0,48.2,46.0,46.3,42.3,37.4,85,79,68,30.43,30.32,0,0,0,0.02
2014-12-6,55.6,49.5,43.0,50.9,45.0,36.3,89,84,75,30.32,30.05,0,0,0,0.25
2014-12-7,51.8,42.3,33.5,36.2,29.4,21.9,77,61,39,30.38,30.19,0,0,0,0.00
2014-12-8,38.9,35.9,32.4,31.4,25.2,19.4,79,65,54,30.40,30.13,0,0,0,0.01
2014-12-9,42.3,36.6,31.7,34.7,29.8,26.0,82,76,66,30.13,29.97,0,0,0,0.00
2014-12-10,44.0,36.4,28.2,30.7,25.6,19.5,72,65,51,30.08,29.99,0,0,0,0.00
2014-12-11,46.4,33.2,26.2,25.8,19.4,13.9,74,58,33,30.17,29.99,0,0,0,0.00
2014-12-12,51.2,34.9,23.4,25.3,18.7,14.7,69,53,30,30.29,30.17,0,0,0,0.00
2014-12-13,55.6,38.1,26.5,26.5,20.3,15.2,63,49,31,30.22,30.10,0,0,0,0.00
2014-12-14,56.2,38.5,28.5,32.4,23.1,18.1,66,54,35,30.11,30.02,0,0,0,0.00
2014-12-15,55.6,40.6,28.4,33.7,26.8,19.6,69,58,42,30.10,30.01,0,0,0,0.01
2014-12-16,56.7,47.2,39.6,48.0,38.2,30.7,83,71,58,30.07,29.84,0,0,0,0.09
2014-12-17,51.4,40.8,32.3,37.0,30.7,25.4,77,67,56,30.15,30.06,0,0,0,0.00
2014-12-18,51.2,39.9,31.9,35.9,28.5,24.4,76,64,51,30.16,30.03,0,0,0,0.00
2014-12-19,49.8,39.7,31.0,34.1,28.4,23.0,74,64,53,30.16,30.07,0,0,0,0.00
2014-12-20,44.1,40.7,38.7,37.2,33.3,28.9,79,74,66,30.20,30.13,0,0,0,0.02
2014-12-21,47.0,41.7,39.2,38.9,35.7,34.3,82,79,72,30.22,30.12,0,0,0,0.02
2014-12-22,41.7,40.3,39.4,37.5,35.8,34.5,85,83,80,30.15,29.97,0,0,0,0.24
2014-12-23,47.9,42.9,39.0,45.2,39.3,34.7,90,87,84,30.01,29.86,0,0,0,1.19
2014-12-24,52.0,48.6,44.9,49.6,45.8,41.6,91,89,87,29.87,29.65,0,0,0,1.56
2014-12-25,47.0,40.8,32.6,43.1,33.1,26.0,87,74,58,30.25,29.75,0,0,0,0.00
2014-12-26,52.4,39.8,30.1,37.1,29.7,24.4,80,68,44,30.34,30.22,0,0,0,0.00
2014-12-27,57.8,46.4,37.2,38.6,32.4,29.0,75,59,33,30.32,30.19,0,0,0,0.00
2014-12-28,57.1,51.3,48.1,52.0,44.5,34.2,86,77,57,30.19,30.00,0,0,0,0.04
2014-12-29,54.4,50.3,47.3,48.7,45.6,42.4,86,83,79,30.12,30.03,0,0,0,0.47
2014-12-30,47.3,40.9,34.2,42.3,36.3,28.8,85,83,80,30.38,30.10,0,0,0,0.03
2014-12-31,43.0,35.0,30.6,32.2,27.4,23.2,80,73,63,30.41,30.30,0,0,0,0.00
2015-1-1,47.4,36.3,26.2,31.8,26.6,20.2,79,68,52,30.31,30.17,0,0,0,0.00
2015-1-2,47.6,42.3,36.7,40.4,34.6,29.1,82,74,68,30.33,30.22,0,0,0,0.17